BEIDOU-3S M1S (C57)

Last updated on Fri Oct 17 2025 00:03:25 GMT+0000 (Coordinated Universal Time)

1 40749U 15037B 25288.17388407 -.00000047 00000+0 00000+0 0 9993 2 40749 55.0854 310.4645 0002674 351.7370 8.3010 1.86253891 69562
UTC large
Height (km)
Speed (km/s)
/
Latitude / Longitude
Inclination (degrees)
Orbital Period (minutes)
Azimuth
Elevation
Range (km)
Doppler Factor

Next 0 passes for location: London (51.5072 / 0.1276)

Sorry there are no passes over London.